Regional Weather Roundup
Issued by NWS Green Bay, WI

Home | Current Version | Previous Version | Graphics & Text | Print | Product List | Glossary Off
Versions: 1 2 3 4 5 6 7 8 9 10 11 12 13 14 15 16 17 18 19 20 21 22 23 24 25 26 27 28 29 30 31 32 33 34 35 36 37 38 39 40 41 42 43 44 45 46 47 48 49 50

000
ASUS43 KGRB 251611
RWRGRB

NORTH-CENTRAL AND NORTHEAST WISCONSIN REGIONAL WEATHER ROUNDUP
NATIONAL WEATHER SERVICE GREEN BAY WI
1100 AM CDT SAT MAR 25 2017

WIZ005-009-010>012-018-019-251700-
NORTH CENTRAL WISCONSIN

CITY           SKY/WX    TMP DP  RH WIND       PRES   REMARKS
IRONWOOD       CLOUDY    34  29  82 E12       30.28S
MANITOWISH WTR CLOUDY    33  32  95 E7        30.24S
ARBOR VITAE    CLOUDY    37  32  84 E7        30.22F
EAGLE RIVER    CLOUDY    33  31  89 E9        30.24S
LAND O LAKES   CLOUDY    34  31  90 E8        30.27S
RHINELANDER    CLOUDY    35  31  85 E13       30.23F
PHILLIPS       CLOUDY    34  30  86 E10G18    30.21F
ANTIGO         CLOUDY    33  32  94 E17G23    30.22S
TOMAHAWK       CLOUDY    34  29  82 E8G17     30.23S
MERRILL        CLOUDY    36  32  85 E12G17    30.22F
$$

WIZ013-073-251700-
NORTHEAST WISCONSIN

CITY           SKY/WX    TMP DP  RH WIND       PRES   REMARKS
IRON MOUNTAIN  CLOUDY    36  29  75 SE9       30.27F
MARINETTE        N/A    N/A N/A N/A MISG        N/A
OCONTO         CLOUDY    36  32  87 NE10G17   30.27S
$$

WIZ017-030-035>037-045-251700-
CENTRAL WISCONSIN

CITY           SKY/WX    TMP DP  RH WIND       PRES   REMARKS
MEDFORD        CLOUDY    34  31  88 E17       30.18F
WAUSAU         CLOUDY    36  32  85 E15G23    30.20S
MOSINEE        NOT AVBL
MARSHFIELD     CLOUDY    36  31  82 E18G25    30.16F
WISC RAPIDS    CLOUDY    37  33  85 E14G26    30.18F
STEVENS POINT  CLOUDY    34  32  92 NE17G24   30.19F
WAUPACA        CLOUDY    39  34  82 NE13G18   30.20F
SHAWANO        CLOUDY    38  34  85 E16G23    30.25S
CLINTONVILLE   CLOUDY    36  32  87 E17G25    30.23S
WAUTOMA        CLOUDY    36  34  92 E15G28    30.18S
$$

WIZ038-039-048-051-251700-
FOX VALLEY

CITY           SKY/WX    TMP DP  RH WIND       PRES   REMARKS
NWS GREEN BAY  CLOUDY    38  36  92 NE18      30.23F
APPLETON       CLOUDY    36  36 100 NE14G22   30.18F
OSHKOSH        CLOUDY    37  34  89 NE16      30.17S
FOND DU LAC    CLOUDY    38  33  82 NE15      30.17S
$$

WIZ022-050-052-251700-
EAST CENTRAL WISCONSIN

CITY           SKY/WX    TMP DP  RH WIND       PRES   REMARKS
EPHRAIM        CLOUDY    35  33  93 E13G22    30.27S
WASHINGTON ISL CLOUDY    34  31  89 E10G18    30.30S
STURGEON BAY   CLOUDY    37  32  82 NE16G25   30.26F
MANITOWOC      CLOUDY    38  35  89 NE9       30.21S
SHEBOYGAN      CLOUDY    37  34  89 NE18      30.18S
$$

LMZ563-521-522-541>543-251700-
LAKESHORE

STATION/POSITION TIME  TEMP    WIND        PRES    VSBY  WAVE
                       AIR SEA DIR/SP/G                  HT/PER
                 (UTC) (F)     (DEG/KT/KT) (MB)    (MI)  (FT/S)
SHEBOYGAN LKSHOR 1600   37      40/ 17/ 20 1022.7S
KEWAUNEE LKSHORE 1542   37      50/ 13/ 20 1023.0F
NORTHPORT PIER   1540   34      70/ 15/ 19 1025.7F
SISTER BAY LKSHO 1536   37      70/ 13/ 20   N/A
CHAMBERS ISLAND  1540   35      50/ 14/ 19 1025.4R
MENOMINEE LKSHOR 1542   34      40/ 15/ 18 1024.5F
$$




USA.gov is the U.S. government's official web portal to all federal, state and local government web resources and services.